Weather WX

World > North America > United States > Missouri

Kingdom City, Missouri Regional Weather

Lat: 38.95N, Lon: 91.94W
Wx Zone: MOZ050
Warning FLW WEATHER ALERT - (More Info. Click Here) Warning
Feedback

Kingdom City, MO Regional Weather

Expires:201906152300;;128455
ASUS43 KLSX 152207
RWRMO 

WEATHER SUMMARY FOR MISSOURI
NATIONAL WEATHER SERVICE SPRINGFIELD MO
500 PM CDT SAT JUN 15 2019

NOTE: "FAIR" INDICATES FEW OR NO CLOUDS BELOW 12,000 FEET WITH NO
       SIGNIFICANT WEATHER AND/OR OBSTRUCTIONS TO VISIBILITY.
       CURRENT SKY AND/OR WEATHER CONDITIONS ARE NOT AVAILABLE FOR
       CHILLICOTHE AND FARMINGTON.


MOZ032>034-039>042-045>050-055>058-069>072-152300-
...CENTRAL MISSOURI...  
  
CITY           SKY/WX    TMP DP  RH WIND       PRES   REMARKS
COLUMBIA       SUNNY     86  66  51 SW18      29.78F                  
ROLLA          SUNNY     84  66  54 SW13      29.84S                  
SEDALIA        SUNNY     83  69  62 SW16G26   29.80S                  
WARRENSBURG    MOSUNNY   82  68  61 S12G23    29.77F                  
OSAGE BEACH    SUNNY     84  69  60 SW13      29.83S                  
               
$$

SKY/WX - Weather  TMP - Temperature  DP - Dew Point  RH - Relative Humidity
WIND - Wind Direction/Speed PRES - Barometric Pressure VSB - Visibility
WCI - Wind Chill Index E13G22 Wind - East Wind 13 mph/Gusts of 22 mph